User: anonymous   Login
Location: Gro� Glienicke
(52.4675°N, 13.1079°E)
Time: 13:04:23
(UTC+00:00)
Language:

SL-4 R/B - Orbit

View from above orbital plane
View from above orbital plane
View from above satellite
View from above satellite

Ground track
Ground track

The orbit data is extracted from the following two-line orbital elements,

1 44799U 19079C   20200.23817634  .35655148  29901-5  15831-3 0  9991
2 44799  97.8820 304.8161 0013490 249.2015 169.2870 16.56539537 37511
Epoch (UTC): 18 July 2020 05:42:58
Eccentricity: 0.0013490
inclination: 97.8820°
perigee height: 113 km
apogee height: 131 km
right ascension of ascending node: 304.8161°
argument of perigee: 249.2015°
revolutions per day: 16.56539537
mean anomaly at epoch: 169.2870°
orbit number at epoch: 3751

The dashed part of the orbit path shows where the satellite is in the earth's shadow,  

DLR